Weather History for Marysville, OH

Change the Weather History Date:

Thursday, October 10, 2013

  Actual Average (KDLZ) Record (KDLZ)
Temperature  
Mean Temperature 54 °F -  
Max Temperature 73 °F 65 °F 83 °F (1939)
Min Temperature 35 °F 41 °F 28 °F (1989)
Degree Days  
Heating Degree Days 11    
Growing Degree Days 4 (Base 50)    
Moisture  
Dew Point 39 °F    
Average Humidity 65    
Maximum Humidity 97    
Minimum Humidity 23    
Precipitation  
Precipitation 0.00 in - - ()
Sea Level Pressure  
Sea Level Pressure 30.16 in    
Wind  
Wind Speed 1 mph (NE)    
Max Wind Speed 6 mph    
Max Gust Speed -    
Visibility 9 miles    
Events      
Averages and records for this station are not official NWS values.
T = Trace of Precipitation, MM = Missing Value Source: NWS Daily Summary

Daily Weather History Graph

Daily Weather History Graph

Search for Another Location

Airport:

Trip Planner

Search our weather history database for the weather conditions in past years. The results will help you decide how hot, cold, wet, or windy it might be!

Date:

Astronomy

Oct. 10, 2013 Rise Set
Actual Time 7:39 AM EDT 7:00 PM EDT
Civil Twilight 7:11 AM EDT 7:28 PM EDT
Nautical Twilight 6:40 AM EDT 7:59 PM EDT
Astronomical Twilight 6:08 AM EDT 8:30 PM EDT
Moon 1:30 PM EDT (10/10) 11:37 PM EDT (10/10)
Length of Visible Light 12h 16m
Length of Day
11h 21m
Waxing Crescent, 35% of the Moon is Illuminated
Oct 10
Waxing Crescent
Oct 11
First Quarter
Oct 18
Full
Oct 26
Last Quarter
Nov 3
New

Hourly Weather History & Observations

Time (EDT) Temp. Dew Point Humidity Pressure Visibility Wind Dir Wind Speed Gust Speed Precip Events Conditions
12:13 AM 42.3 °F 39.9 °F 91% 30.20 in 10.0 mi Calm Calm - N/A   Clear
12:33 AM 41.5 °F 39.6 °F 93% 30.20 in 10.0 mi Calm Calm - N/A   Clear
12:54 AM 40.8 °F 38.7 °F 92% 30.19 in 10.0 mi Calm Calm - N/A   Clear
1:13 AM 41.0 °F 38.8 °F 92% 30.19 in 10.0 mi Calm Calm - N/A   Clear
1:33 AM 39.9 °F 38.1 °F 93% 30.19 in 10.0 mi Calm Calm - N/A   Clear
1:54 AM 39.6 °F 37.8 °F 93% 30.19 in 7.0 mi Calm Calm - N/A   Clear
2:13 AM 40.5 °F 39.2 °F 95% 30.20 in 7.0 mi Calm Calm - N/A   Clear
2:33 AM 41.5 °F 40.1 °F 95% 30.19 in 10.0 mi Calm Calm - N/A   Clear
2:54 AM 40.3 °F 38.8 °F 95% 30.19 in 10.0 mi Calm Calm - N/A   Clear
3:13 AM 39.0 °F 37.4 °F 94% 30.19 in 10.0 mi Calm Calm - N/A   Clear
3:33 AM 37.6 °F 36.3 °F 95% 30.19 in 7.0 mi Calm Calm - N/A   Clear
3:54 AM 39.2 °F 37.9 °F 95% 30.18 in 10.0 mi Calm Calm - N/A   Clear
4:13 AM 37.6 °F 36.1 °F 95% 30.19 in 10.0 mi Calm Calm - N/A   Clear
4:33 AM 39.2 °F 37.9 °F 95% 30.19 in 10.0 mi Calm Calm - N/A   Clear
4:53 AM 38.8 °F 37.4 °F 95% 30.19 in 10.0 mi Calm Calm - N/A   Clear
5:13 AM 38.8 °F 37.8 °F 96% 30.19 in 10.0 mi Calm Calm - N/A   Clear
5:34 AM 39.0 °F 37.6 °F 95% 30.20 in 10.0 mi Calm Calm - N/A   Clear
5:53 AM 38.1 °F 36.7 °F 95% 30.20 in 10.0 mi Calm Calm - N/A   Clear
6:13 AM 35.6 °F 34.2 °F 94% 30.21 in 5.0 mi Calm Calm - N/A   Clear
6:34 AM 37.9 °F 36.9 °F 96% 30.21 in 2.5 mi Calm Calm - N/A   Clear
6:53 AM 36.7 °F 35.6 °F 96% 30.21 in 3.0 mi Calm Calm - N/A   Clear
7:13 AM 37.6 °F 36.7 °F 97% 30.21 in 7.0 mi Calm Calm - N/A   Clear
7:34 AM 38.3 °F 37.4 °F 97% 30.20 in 10.0 mi Calm Calm - N/A   Clear
7:53 AM 36.0 °F 34.9 °F 96% 30.21 in 7.0 mi Calm Calm - N/A   Clear
8:13 AM 37.4 °F 36.1 °F 95% 30.21 in 5.0 mi Calm Calm - N/A   Clear
8:34 AM 41.5 °F 40.5 °F 96% 30.21 in 7.0 mi Calm Calm - N/A   Clear
8:53 AM 45.0 °F 43.5 °F 95% 30.21 in 10.0 mi Calm Calm - N/A   Clear
9:13 AM 47.8 °F 43.7 °F 86% 30.21 in 10.0 mi Calm Calm - N/A   Clear
9:33 AM 50.5 °F 44.1 °F 78% 30.21 in 10.0 mi Calm Calm - N/A   Clear
9:53 AM 53.2 °F 43.5 °F 70% 30.21 in 10.0 mi Calm Calm - N/A   Clear
10:14 AM 55.0 °F 43.3 °F 65% 30.21 in 10.0 mi Calm Calm - N/A   Clear
10:33 AM 56.7 °F 44.2 °F 63% 30.21 in 10.0 mi Calm Calm - N/A   Clear
10:53 AM 58.5 °F 43.5 °F 58% 30.21 in 10.0 mi Calm Calm - N/A   Clear
11:13 AM 61.2 °F 42.3 °F 50% 30.20 in 10.0 mi NE 3.5 mph - N/A   Clear
11:33 AM 63.1 °F 39.9 °F 42% 30.20 in 10.0 mi NE 3.5 mph - N/A   Clear
11:54 AM 64.8 °F 34.5 °F 33% 30.20 in 10.0 mi NE 5.8 mph - N/A   Clear
12:13 PM 65.7 °F 33.4 °F 30% 30.20 in 10.0 mi ENE 5.8 mph - N/A   Clear
12:33 PM 67.5 °F 33.8 °F 29% 30.19 in 10.0 mi NE 4.6 mph - N/A   Clear
12:54 PM 68.2 °F 32.0 °F 26% 30.19 in 10.0 mi NNE 3.5 mph - N/A   Clear
1:13 PM 68.7 °F 32.7 °F 26% 30.18 in 10.0 mi NNE 3.5 mph - N/A   Clear
1:33 PM 68.9 °F 34.5 °F 28% 30.17 in 10.0 mi NNE 5.8 mph - N/A   Clear
1:54 PM 71.2 °F 33.8 °F 25% 30.17 in 10.0 mi SE 3.5 mph - N/A   Clear
2:13 PM 71.1 °F 34.5 °F 26% 30.16 in 10.0 mi ENE 4.6 mph - N/A   Clear
2:33 PM 71.4 °F 34.3 °F 26% 30.15 in 2.0 mi North 3.5 mph - N/A   Clear
2:54 PM 72.7 °F 32.9 °F 23% 30.15 in 4.0 mi East 5.8 mph - N/A   Clear
3:13 PM 72.7 °F 33.4 °F 24% 30.14 in 0.2 mi Calm Calm - N/A   Unknown
3:34 PM 72.9 °F 37.0 °F 27% 30.14 in 10.0 mi Calm Calm - N/A   Clear
3:53 PM 72.7 °F 33.4 °F 24% 30.14 in 10.0 mi Calm Calm - N/A   Clear
4:13 PM 73.4 °F 36.3 °F 26% 30.13 in 10.0 mi Calm Calm - N/A   Clear
4:34 PM 73.6 °F 35.6 °F 25% 30.13 in 10.0 mi Calm Calm - N/A   Clear
4:53 PM 73.6 °F 35.8 °F 25% 30.12 in 10.0 mi NNE 3.5 mph - N/A   Clear
5:13 PM 73.0 °F 36.7 °F 27% 30.12 in 10.0 mi Calm Calm - N/A   Clear
5:34 PM 73.4 °F 35.2 °F 25% 30.12 in 10.0 mi Calm Calm - N/A   Clear
5:53 PM 72.9 °F 36.9 °F 27% 30.12 in 10.0 mi Calm Calm - N/A   Clear
6:13 PM 72.3 °F 38.8 °F 30% 30.12 in 10.0 mi Calm Calm - N/A   Clear
6:33 PM 69.1 °F 40.1 °F 35% 30.11 in 10.0 mi Calm Calm - N/A   Clear
6:53 PM 64.9 °F 42.4 °F 44% 30.11 in 10.0 mi Calm Calm - N/A   Clear
7:13 PM 61.9 °F 44.2 °F 52% 30.10 in 10.0 mi Calm Calm - N/A   Clear
7:33 PM 58.6 °F 45.7 °F 62% 30.10 in 10.0 mi Calm Calm - N/A   Clear
7:54 PM 54.9 °F 47.3 °F 76% 30.10 in 10.0 mi Calm Calm - N/A   Clear
8:13 PM 55.6 °F 46.2 °F 71% 30.10 in 10.0 mi Calm Calm - N/A   Clear
8:33 PM 54.5 °F 45.7 °F 72% 30.10 in 10.0 mi Calm Calm - N/A   Clear
8:54 PM 54.7 °F 45.5 °F 71% 30.10 in 10.0 mi NNW 4.6 mph - N/A   Clear
9:13 PM 54.3 °F 44.2 °F 69% 30.10 in 10.0 mi North 4.6 mph - N/A   Clear
9:33 PM 58.5 °F 41.7 °F 54% 30.11 in 10.0 mi North 5.8 mph - N/A   Clear
9:54 PM 58.3 °F 41.2 °F 53% 30.11 in 10.0 mi NNE 3.5 mph - N/A   Clear
10:13 PM 56.8 °F 41.5 °F 57% 30.11 in 10.0 mi NNE 3.5 mph - N/A   Clear
10:33 PM 54.3 °F 42.1 °F 63% 30.11 in 10.0 mi Calm Calm - N/A   Clear
10:53 PM 54.3 °F 42.8 °F 65% 30.11 in 10.0 mi NE 3.5 mph - N/A   Clear
11:13 PM 54.7 °F 43.0 °F 65% 30.11 in 10.0 mi ENE 3.5 mph - N/A   Clear
11:34 PM 51.8 °F 43.2 °F 72% 30.11 in 10.0 mi Calm Calm - N/A   Clear
11:54 PM 48.9 °F 42.6 °F 79% 30.11 in 10.0 mi Calm Calm - N/A   Clear